This is the latest recevied weather packets stored in our database for station/object KG0HG. If no packets are shown the sender has not sent any weather packets the latest 10 day(s).
| Time | Temp. | Humidity | Pressure | Rain* | Wind** | Luminosity | Snow |
|---|---|---|---|---|---|---|---|
| 1778010112 | 8.33° C | 92% | 1012.5 hPa | 0 mm | - | 79 W/m² | - |
| 1778009808 | 8.89° C | 92% | 1012.5 hPa | 0 mm | - | 58 W/m² | - |
| 1778009505 | 8.89° C | 93% | 1012.3 hPa | 0 mm | - | 80 W/m² | - |
| 1778009204 | 8.89° C | 93% | 1012.4 hPa | 0 mm | - | 75 W/m² | - |
| 1778008901 | 8.33° C | 93% | 1012.4 hPa | 0 mm | - | 77 W/m² | - |
| 1778008599 | 8.89° C | 93% | 1012.3 hPa | 0 mm | - | 86 W/m² | - |
| 1778008297 | 8.89° C | 94% | 1012.3 hPa | 0 mm | - | 96 W/m² | - |
| 1778007993 | 8.33° C | 94% | 1012.4 hPa | 0 mm | - | 101 W/m² | - |
| 1778007688 | 8.33° C | 94% | 1012.1 hPa | 0 mm | - | 81 W/m² | - |
| 1778007385 | 8.33° C | 95% | 1012.2 hPa | 0 mm | - | 85 W/m² | - |
| 1778007081 | 8.33° C | 94% | 1012.5 hPa | 0 mm | - | 81 W/m² | - |
| 1778006778 | 8.33° C | 95% | 1012.7 hPa | 0 mm | - | 68 W/m² | - |
| 1778006475 | 7.78° C | 95% | 1012.7 hPa | 0 mm | - | 62 W/m² | - |
| 1778006171 | 8.33° C | 95% | 1012.6 hPa | 0 mm | - | 52 W/m² | - |
| 1778005869 | 8.33° C | 96% | 1012.6 hPa | 0 mm | - | 74 W/m² | - |
| 1778005565 | 8.33° C | 96% | 1012.6 hPa | 0 mm | - | 95 W/m² | - |
| 1778005262 | 8.33° C | 96% | 1012.9 hPa | 0 mm | - | 93 W/m² | - |
| 1778004959 | 7.78° C | 96% | 1013 hPa | 0 mm | - | 79 W/m² | - |
| 1778004656 | 7.78° C | 96% | 1013.1 hPa | 0 mm | - | 56 W/m² | - |
| 1778004351 | 7.78° C | 97% | 1013.1 hPa | 0 mm | - | 64 W/m² | - |
| 1778004049 | 7.78° C | 96% | 1012.9 hPa | 0 mm | - | 59 W/m² | - |
| 1778003744 | 7.78° C | 96% | 1013.3 hPa | 0 mm | - | 52 W/m² | - |
| 1778003441 | 7.78° C | 96% | 1013.5 hPa | 0 mm | - | 51 W/m² | - |
| 1778003138 | 8.33° C | 96% | 1013.5 hPa | 0 mm | - | 41 W/m² | - |
| 1778002834 | 7.78° C | 96% | 1013.1 hPa | 0 mm | - | 62 W/m² | - |
* Rain latest hour (hover to see other rain measurements)
** Current wind speed in m/s (hover to see current wind gust speed)